GW2700 Weather Reports


time (UTC)temp
C
wind
direction
speed
KPH
gust
KPH
rain 1hr
cm
rain 24hr
cm
rain mn
cm
humidity
%
barometer
mb
20260502130353 13 311 0.0 0.0 0.00 0.00 0.00 84 1015.8
20260502123336 12 309 0.0 0.0 0.00 0.00 0.00 89 1015.6
20260502122833 12 323 0.0 0.0 0.00 0.00 0.00 89 1015.6
20260502122328 11 319 0.0 0.0 0.00 0.00 0.00 89 1015.4
20260502121827 11 316 0.0 0.0 0.00 0.00 0.00 90 1015.7
20260502121324 11 315 0.0 0.0 0.00 0.00 0.00 90 1015.5
20260502120821 11 328 0.0 0.0 0.00 0.00 0.00 89 1015.3
20260502120317 11 328 0.0 0.0 0.00 0.00 0.00 89 1015.2
20260502115815 11 327 0.0 0.0 0.00 0.00 0.00 89 1015.1
20260502115312 11 352 0.0 1.6 0.00 0.00 0.00 89 1015.1
20260502114808 11 322 0.0 0.0 0.00 0.00 0.00 88 1014.9
20260502114305 11 320 0.0 0.0 0.00 0.00 0.00 88 1014.9
20260502113802 11 258 0.0 0.0 0.00 0.00 0.00 89 1015.0
20260502113300 11 301 0.0 0.0 0.00 0.00 0.00 88 1014.8
20260502112758 11 282 0.0 0.0 0.00 0.00 0.00 89 1014.7
20260502112255 11 329 0.0 0.0 0.00 0.00 0.00 89 1014.6
20260502111752 11 335 0.0 0.0 0.00 0.00 0.00 88 1014.4
20260502111249 11 335 0.0 0.0 0.00 0.00 0.00 88 1014.6
20260502110747 11 335 0.0 0.0 0.00 0.00 0.00 88 1014.6
20260502110245 11 12 0.0 0.0 0.00 0.00 0.00 89 1014.5
20260502105743 11 324 0.0 0.0 0.00 0.00 0.00 89 1014.5
20260502105238 11 301 0.0 0.0 0.00 0.00 0.00 89 1014.3
20260502104737 11 327 0.0 0.0 0.00 0.00 0.00 89 1014.4
20260502104234 11 315 0.0 0.0 0.00 0.00 0.00 89 1014.2
20260502103731 11 315 0.0 0.0 0.00 0.00 0.00 89 1014.1
20260502103229 11 307 0.0 0.0 0.00 0.00 0.00 89 1014.1
20260502102725 11 332 0.0 0.0 0.00 0.00 0.00 90 1014.2
20260502102222 11 338 0.0 0.0 0.00 0.00 0.00 90 1014.1
20260502101720 11 335 0.0 0.0 0.00 0.00 0.00 90 1014.1
20260502101218 11 337 0.0 0.0 0.00 0.00 0.00 90 1014.4
20260502100716 11 318 0.0 0.0 0.00 0.00 0.00 90 1014.2
20260502100214 11 321 0.0 0.0 0.00 0.00 0.00 90 1014.1
20260502091148 11 324 0.0 0.0 0.00 0.00 0.00 91 1013.7
20260502090645 11 324 0.0 0.0 0.00 0.00 0.00 91 1014.0
20260502090142 11 323 0.0 0.0 0.00 0.00 0.00 91 1013.6
20260502080105 12 285 0.0 0.0 0.00 0.00 0.00 91 1013.7
20260502071534 12 347 0.0 0.0 0.00 0.00 0.00 90 1013.8
20260502071032 12 312 0.0 0.0 0.00 0.00 0.00 90 1014.0
20260502070530 12 280 0.0 0.0 0.00 0.00 0.00 90 1013.7
20260502070028 12 306 0.0 0.0 0.00 0.00 0.00 90 1014.0
20260502065526 12 288 0.0 0.0 0.00 0.00 0.00 91 1014.0
20260502065023 12 302 0.0 0.0 0.00 0.00 0.00 91 1014.1
20260502064521 12 318 0.0 0.0 0.00 0.00 0.00 91 1014.0
20260502064018 12 329 0.0 0.0 0.00 0.00 0.00 91 1013.9
20260502063515 12 330 0.0 0.0 0.00 0.00 0.00 91 1014.0
20260502063013 12 319 0.0 0.0 0.00 0.00 0.00 91 1013.9
20260502062509 12 337 0.0 0.0 0.00 0.00 0.00 91 1014.0
20260502062008 12 18 0.0 0.0 0.00 0.00 0.00 91 1013.8
20260502061506 12 324 0.0 0.0 0.00 0.00 0.00 92 1013.9
20260502061002 12 323 0.0 0.0 0.00 0.00 0.00 92 1014.0
20260502060457 12 323 0.0 0.0 0.00 0.00 0.00 92 1013.8
20260502055954 12 324 0.0 0.0 0.00 0.00 0.00 92 1013.9
20260502055452 12 324 0.0 0.0 0.00 0.00 0.00 92 1013.8
20260502054946 12 324 0.0 0.0 0.00 0.00 0.00 92 1014.1
20260502054444 12 324 0.0 0.0 0.00 0.00 0.00 92 1013.7
20260502053941 12 324 0.0 0.0 0.00 0.00 0.00 92 1013.8
20260502053438 12 325 0.0 0.0 0.00 0.00 0.00 92 1013.8
20260502052936 12 325 0.0 0.0 0.00 0.00 0.00 92 1013.8
20260502052434 12 325 0.0 0.0 0.00 0.00 0.00 91 1013.6
20260502051932 12 325 0.0 0.0 0.00 0.00 0.00 91 1013.8
20260502051430 12 325 0.0 0.0 0.00 0.00 0.00 91 1013.5
20260502050927 12 325 0.0 0.0 0.00 0.00 0.00 91 1013.7
20260502050423 12 325 0.0 0.0 0.00 0.00 0.00 91 1013.7
20260502045920 12 325 0.0 0.0 0.00 0.36 0.36 91 1013.8
20260502045417 12 324 0.0 0.0 0.00 0.36 0.36 90 1013.6
20260502044914 12 324 0.0 0.0 0.00 0.36 0.36 90 1013.6
20260502044409 12 324 0.0 0.0 0.00 0.36 0.36 91 1013.6
20260502043907 12 324 0.0 0.0 0.00 0.36 0.36 91 1013.8
20260502043405 12 329 0.0 0.0 0.00 0.36 0.36 91 1013.7
20260502042904 12 242 0.0 0.0 0.00 0.36 0.36 91 1013.7
20260502042401 12 242 0.0 0.0 0.00 0.36 0.36 92 1013.6
20260502041858 12 242 0.0 0.0 0.00 0.36 0.36 92 1013.3
20260502041356 12 230 0.0 0.0 0.00 0.36 0.36 92 1013.6
20260502040853 13 230 0.0 0.0 0.00 0.36 0.36 91 1013.6
20260502040350 13 210 0.0 0.0 0.00 0.36 0.36 91 1013.8
20260502035846 13 208 0.0 0.0 0.00 0.36 0.36 90 1013.6
20260502035342 13 166 0.0 0.0 0.00 0.36 0.36 90 1013.4
20260502034840 13 165 0.0 0.0 0.00 0.36 0.36 90 1013.4
20260502034338 13 165 0.0 0.0 0.00 0.36 0.36 90 1013.4
20260502033836 13 316 0.0 0.0 0.00 0.36 0.36 90 1013.3
20260502033334 13 317 0.0 0.0 0.00 0.36 0.36 90 1013.5
20260502032830 13 330 0.0 0.0 0.00 0.36 0.36 90 1013.6
20260502032326 13 0 0.0 0.0 0.00 0.36 0.36 90 1013.6
20260502031824 13 319 0.0 0.0 0.00 0.36 0.36 90 1013.5
20260502031322 13 326 0.0 1.6 0.00 0.36 0.36 89 1013.5
20260502030820 13 321 0.0 1.6 0.00 0.36 0.36 89 1013.5
20260502030318 13 37 0.0 0.0 0.00 0.36 0.36 89 1013.3
20260502025815 13 37 0.0 0.0 0.00 0.36 0.36 89 1013.3
20260502025313 13 39 0.0 0.0 0.00 0.36 0.36 88 1012.9
20260502024811 13 39 0.0 0.0 0.00 0.36 0.36 88 1012.9
20260502024308 13 39 0.0 0.0 0.00 0.36 0.36 88 1012.8
20260502023806 13 39 0.0 0.0 0.00 0.36 0.36 88 1012.8
20260502023304 13 39 0.0 0.0 0.00 0.36 0.36 87 1012.8
20260502022801 13 39 0.0 0.0 0.00 0.36 0.36 87 1012.6
20260502022257 13 35 0.0 0.0 0.00 0.36 0.36 88 1012.8
20260502021754 13 51 1.6 1.6 0.00 0.36 0.36 88 1012.8
20260502021251 13 50 0.0 0.0 0.00 0.36 0.36 89 1012.7
20260502020749 13 9 0.0 1.6 0.00 0.36 0.36 89 1012.5
20260502020246 13 34 0.0 1.6 0.00 0.36 0.36 90 1012.5
20260502015743 13 38 1.6 3.2 0.00 0.36 0.36 91 1012.3
20260502015239 13 41 1.6 1.6 0.00 0.36 0.36 91 1012.6
20260502014737 13 129 1.6 1.6 0.00 0.36 0.36 91 1012.7
20260502014234 13 219 0.0 0.0 0.00 0.36 0.36 90 1013.1
20260502013730 13 257 0.0 1.6 0.00 0.36 0.36 89 1013.1
20260502013226 13 58 0.0 0.0 0.00 0.36 0.36 89 1012.8
20260502012723 13 57 0.0 0.0 0.00 0.36 0.36 89 1012.6
20260502012221 13 56 0.0 0.0 0.00 0.36 0.36 88 1012.5
20260502011718 13 39 0.0 0.0 0.00 0.36 0.36 89 1012.5
20260502011213 13 20 0.0 1.6 0.00 0.36 0.36 88 1012.5
20260502010712 13 320 0.0 0.0 0.00 0.36 0.36 88 1012.6
20260502010207 13 317 0.0 0.0 0.00 0.36 0.36 87 1012.3
20260502005704 13 57 0.0 0.0 0.00 0.36 0.36 87 1011.9
20260502005202 13 40 0.0 0.0 0.00 0.36 0.36 87 1011.9
20260502004658 13 41 0.0 0.0 0.00 0.36 0.36 87 1011.6
20260502004155 13 26 1.6 1.6 0.00 0.36 0.36 86 1011.2
20260502003653 13 38 0.0 0.0 0.00 0.36 0.36 86 1011.9
20260502003150 13 52 0.0 0.0 0.00 0.36 0.36 86 1011.8
20260502002645 13 50 0.0 1.6 0.00 0.36 0.36 86 1011.7
20260502002144 13 69 0.0 0.0 0.00 0.36 0.36 86 1011.5
20260502001641 13 37 1.6 1.6 0.00 0.36 0.36 85 1011.4
20260502001138 13 54 0.0 0.0 0.00 0.36 0.36 85 1011.8
20260502000636 13 91 0.0 1.6 0.00 0.36 0.36 84 1011.5
20260502000133 13 349 1.6 1.6 0.00 0.36 0.36 85 1011.3
20260501235629 13 41 1.6 1.6 0.00 0.36 0.36 84 1011.5
20260501235125 13 43 1.6 1.6 0.00 0.36 0.36 83 1011.7
20260501234621 13 61 0.0 0.0 0.00 0.36 0.36 82 1011.3
20260501234118 13 37 1.6 1.6 0.00 0.36 0.36 82 1011.6
20260501233616 13 353 1.6 1.6 0.00 0.36 0.36 82 1011.3
20260501233114 13 33 0.0 1.6 0.00 0.36 0.36 81 1011.1
20260501232609 14 35 1.6 3.2 0.00 0.36 0.36 81 1011.1
20260501232107 14 27 0.0 1.6 0.00 0.36 0.36 79 1011.3
20260501231604 14 197 0.0 0.0 0.00 0.36 0.36 79 1011.6
20260501231102 14 9 0.0 1.6 0.00 0.36 0.36 78 1010.9
20260501230601 14 33 1.6 3.2 0.00 0.36 0.36 78 1010.6
20260501230058 14 47 3.2 3.2 0.00 0.36 0.36 77 1010.6
20260501225556 14 43 0.0 1.6 0.00 0.36 0.36 77 1010.7
20260501225052 14 36 3.2 3.2 0.00 0.36 0.36 76 1010.6
20260501224550 14 30 1.6 1.6 0.00 0.36 0.36 76 1010.8
20260501224046 14 21 3.2 4.8 0.00 0.36 0.36 76 1010.8
20260501223543 15 6 0.0 1.6 0.00 0.36 0.36 76 1011.0
20260501223039 15 0 0.0 1.6 0.00 0.36 0.36 76 1010.8
20260501222535 15 28 0.0 1.6 0.00 0.36 0.36 77 1010.7
20260501222033 15 58 3.2 3.2 0.00 0.36 0.36 76 1010.5
20260501221529 15 79 0.0 0.0 0.00 0.36 0.36 77 1010.8
20260501221027 15 10 1.6 1.6 0.00 0.36 0.36 79 1010.4
20260501220524 15 37 1.6 1.6 0.00 0.36 0.36 76 1010.1
20260501220021 15 334 0.0 1.6 0.00 0.36 0.36 76 1010.6
20260501215517 15 132 3.2 4.8 0.00 0.36 0.36 75 1010.2
20260501215012 15 47 3.2 4.8 0.00 0.36 0.36 76 1009.5
20260501214508 15 18 1.6 1.6 0.00 0.36 0.36 78 1009.4
20260501214004 15 52 1.6 1.6 0.00 0.36 0.36 77 1009.0
20260501213501 15 343 3.2 3.2 0.00 0.36 0.36 78 1009.0
20260501212956 15 322 4.8 6.4 0.00 0.36 0.36 78 1009.1
20260501212453 15 219 6.4 9.7 0.00 0.36 0.36 78 1009.3
20260501211950 15 8 1.6 3.2 0.00 0.36 0.36 79 1009.2
20260501211447 15 17 1.6 4.8 0.00 0.36 0.36 80 1009.7
20260501210945 15 16 3.2 3.2 0.00 0.36 0.36 78 1009.6
20260501210441 14 31 1.6 1.6 0.00 0.36 0.36 79 1009.8
20260501205938 14 39 1.6 1.6 0.00 0.36 0.36 78 1010.1
20260501205435 14 12 1.6 1.6 0.00 0.36 0.36 77 1010.7
20260501204932 14 29 3.2 3.2 0.00 0.36 0.36 77 1010.7
20260501204428 14 52 1.6 3.2 0.00 0.36 0.36 76 1010.7
20260501203924 14 78 1.6 3.2 0.00 0.36 0.36 77 1010.8
20260501203421 14 33 1.6 1.6 0.00 0.36 0.36 79 1010.9
20260501202919 14 35 3.2 3.2 0.00 0.36 0.36 78 1011.4
20260501202415 14 332 1.6 1.6 0.00 0.36 0.36 78 1011.6
20260501201912 14 7 3.2 3.2 0.00 0.36 0.36 78 1011.4
20260501201409 14 0 3.2 4.8 0.00 0.36 0.36 77 1011.1
20260501200905 15 67 1.6 3.2 0.00 0.36 0.36 77 1010.9
20260501200402 15 21 0.0 1.6 0.00 0.36 0.36 78 1010.5
20260501195900 15 30 1.6 4.8 0.00 0.36 0.36 78 1009.7
20260501195356 15 53 6.4 6.4 0.00 0.36 0.36 75 1009.4
20260501194852 15 44 8.0 11.3 0.00 0.36 0.36 78 1009.1
20260501194348 14 246 3.2 3.2 0.00 0.36 0.36 79 1009.3
20260501193844 14 32 4.8 6.4 0.00 0.36 0.36 78 1009.0
20260501193343 14 74 4.8 11.3 0.00 0.36 0.36 82 1009.1
20260501192840 14 305 4.8 11.3 0.00 0.36 0.36 80 1009.1
20260501192337 14 42 3.2 4.8 0.00 0.36 0.36 83 1008.9
20260501191834 14 288 11.3 16.1 0.00 0.36 0.36 83 1009.2
20260501191332 13 41 4.8 4.8 0.00 0.36 0.36 87 1009.1
20260501190828 13 58 3.2 4.8 0.00 0.36 0.36 90 1009.2
20260501190324 13 77 3.2 4.8 0.00 0.36 0.36 88 1009.7
20260501185819 13 45 8.0 11.3 0.00 0.36 0.36 91 1009.8
20260501185316 12 94 3.2 3.2 0.00 0.36 0.36 92 1009.7
20260501184812 12 61 0.0 1.6 0.00 0.36 0.36 93 1009.7
20260501184308 12 38 4.8 4.8 0.00 0.36 0.36 94 1009.7
20260501183804 12 33 4.8 9.7 0.00 0.36 0.36 94 1010.1
20260501183301 12 10 4.8 4.8 0.00 0.36 0.36 94 1010.1
20260501182757 12 51 3.2 3.2 0.00 0.36 0.36 94 1010.7
20260501182254 12 13 4.8 4.8 0.00 0.36 0.36 94 1010.8
20260501181751 12 30 3.2 3.2 0.00 0.36 0.36 95 1010.8
20260501181248 12 302 3.2 3.2 0.00 0.36 0.36 95 1011.1
20260501180746 12 45 3.2 3.2 0.00 0.36 0.36 94 1011.2
20260501180241 12 45 3.2 3.2 0.00 0.36 0.36 94 1011.3
20260501175738 12 34 1.6 3.2 0.00 0.36 0.36 94 1011.6
20260501175236 12 56 1.6 1.6 0.00 0.36 0.36 94 1011.6
20260501174732 12 47 1.6 1.6 0.00 0.36 0.36 94 1011.7
20260501174229 12 291 0.0 1.6 0.00 0.36 0.36 94 1011.8
20260501173727 12 32 1.6 3.2 0.00 0.36 0.36 94 1011.6
20260501173224 12 49 4.8 9.7 0.00 0.36 0.36 95 1011.6
20260501172720 12 36 3.2 3.2 0.00 0.36 0.36 94 1011.4
20260501172215 12 334 0.0 0.0 0.00 0.36 0.36 94 1011.6
20260501171711 12 3 1.6 6.4 0.00 0.36 0.36 94 1012.2
20260501171209 12 327 4.8 6.4 0.00 0.36 0.36 95 1012.3
20260501170705 12 39 0.0 0.0 0.00 0.36 0.36 95 1012.5
20260501170202 12 38 3.2 3.2 0.00 0.36 0.36 94 1012.5
20260501165700 12 82 0.0 1.6 0.18 0.36 0.36 95 1012.5
20260501165157 12 31 3.2 3.2 0.18 0.36 0.36 95 1012.7
20260501164655 12 46 0.0 1.6 0.00 0.33 0.33 95 1012.5
20260501164151 12 24 3.2 3.2 0.00 0.33 0.33 95 1012.6
20260501163648 12 55 3.2 4.8 0.00 0.33 0.33 95 1012.6
20260501163145 12 27 3.2 3.2 0.00 0.33 0.33 95 1012.6
20260501162640 12 51 3.2 3.2 0.13 0.33 0.33 95 1012.7
20260501162137 12 46 1.6 3.2 0.13 0.33 0.33 95 1012.8
20260501161635 12 21 3.2 4.8 0.00 0.30 0.30 95 1012.7
20260501161132 12 41 1.6 1.6 0.18 0.30 0.30 95 1012.8
20260501160628 12 296 0.0 1.6 0.18 0.30 0.30 95 1012.7
20260501160126 12 114 0.0 0.0 0.13 0.28 0.28 95 1012.7
20260501155622 12 4 1.6 3.2 0.13 0.28 0.28 95 1013.1
20260501155119 12 33 1.6 3.2 0.13 0.28 0.28 95 1013.1
20260501154617 11 10 1.6 3.2 0.18 0.25 0.25 95 1013.1
20260501154114 11 29 3.2 3.2 0.18 0.25 0.25 95 1013.3
20260501153611 12 34 1.6 3.2 0.18 0.23 0.23 95 1013.5
20260501153108 11 18 1.6 1.6 0.18 0.23 0.23 95 1013.4
20260501152604 11 25 3.2 4.8 0.00 0.20 0.20 95 1013.0
20260501152101 11 82 0.0 0.0 0.00 0.20 0.20 95 1012.8
20260501151558 11 63 0.0 0.0 0.00 0.20 0.20 95 1012.9
20260501151055 11 342 0.0 0.0 0.00 0.20 0.20 95 1013.2
20260501150550 11 353 1.6 1.6 0.00 0.20 0.20 95 1013.3
20260501150047 11 77 0.0 0.0 0.00 0.20 0.20 95 1013.1
20260501145543 11 29 3.2 3.2 0.00 0.20 0.20 95 1013.2
20260501145042 11 27 0.0 1.6 0.00 0.20 0.20 95 1012.8
20260501144537 11 54 3.2 3.2 0.00 0.20 0.20 95 1012.7
20260501144032 11 25 1.6 3.2 0.00 0.20 0.20 95 1012.3
20260501143529 11 24 1.6 3.2 0.13 0.20 0.20 95 1011.8
20260501143027 11 18 1.6 1.6 0.13 0.20 0.20 95 1011.6
20260501142524 11 18 3.2 4.8 0.00 0.18 0.18 95 1011.7
20260501142020 11 33 1.6 4.8 0.00 0.18 0.18 95 1011.3
20260501141515 11 40 3.2 3.2 0.18 0.18 0.18 95 1011.3
20260501141014 11 191 3.2 4.8 0.18 0.18 0.18 95 1011.3
20260501140509 11 73 3.2 4.8 0.13 0.15 0.15 95 1011.6
20260501140005 11 325 3.2 3.2 0.13 0.15 0.15 95 1011.6
20260501135503 11 17 3.2 4.8 0.00 0.13 0.13 94 1011.9
20260501135000 11 58 3.2 3.2 0.00 0.13 0.13 94 1011.9
20260501134456 11 26 3.2 3.2 0.18 0.13 0.13 94 1011.8
20260501133953 11 35 1.6 1.6 0.18 0.13 0.13 94 1012.2
20260501133450 11 355 4.8 4.8 0.00 0.10 0.10 94 1012.2